When you browse on this site, cookies collect data to enhance your experience and personalize the content and advertising you see.
Visit our Privacy Policy to learn more. By continuing to use the site, you agree to this use of cookies and data.
  • In Hungary
  • List of Countries
  • For 7 days
  • Water Temperature
  • Weather Map
  • News
  • Weather Widgets
  • user-avatar
    Login

    Hourly Weather Malanje

    Today, 4 June, Thursday

    Time Temperature Precipitation Wind Pressure Humidity
    00:00 +20°C° 0 mm 1 mps 666 mmHg 57%
    01:00 +20°C° 0 mm 1 mps 665 mmHg 61%
    02:00 +19°C° 0 mm 1 mps 665 mmHg 68%
    03:00 +18°C° 0 mm 1 mps 665 mmHg 76%
    04:00 +16°C° 0 mm 1 mps 665 mmHg 83%
    05:00 +18°C° 0 mm 1 mps 665 mmHg 80%
    06:00 +18°C° 0 mm 1 mps 666 mmHg 77%
    07:00 +19°C° 0 mm 1 mps 667 mmHg 75%
    08:00 +22°C° 0 mm 1 mps 667 mmHg 61%
    09:00 +25°C° 0 mm 2 mps 668 mmHg 48%
    10:00 +28°C° 0 mm 2 mps 669 mmHg 34%
    11:00 +29°C° 0 mm 2 mps 668 mmHg 32%
    12:00 +31°C° 0 mm 2 mps 668 mmHg 30%
    13:00 +32°C° 0 mm 2 mps 668 mmHg 27%
    14:00 +32°C° 0 mm 1 mps 667 mmHg 28%
    15:00 +32°C° 0 mm 1 mps 666 mmHg 29%
    16:00 +31°C° 0 mm 1 mps 666 mmHg 29%
    17:00 +29°C° 0 mm 1 mps 666 mmHg 35%
    18:00 +26°C° 0 mm 1 mps 666 mmHg 40%
    19:00 +22°C° 0 mm 0 mps 666 mmHg 46%
    20:00 +21°C° 0 mm 0 mps 666 mmHg 48%
    21:00 +23°C° 0 mm 1 mps 666 mmHg 50%
    22:00 +22°C° 0 mm 1 mps 666 mmHg 52%
    23:00 +21°C° 0 mm 1 mps 666 mmHg 59%

    Tomorrow, 5 June, Friday

    Time Temperature Precipitation Wind Pressure Humidity
    00:00 +20°C° 0 mm 1 mps 666 mmHg 66%
    01:00 +19°C° 0 mm 1 mps 666 mmHg 74%
    02:00 +19°C° 0 mm 1 mps 666 mmHg 79%
    03:00 +18°C° 0 mm 1 mps 665 mmHg 84%
    04:00 +18°C° 0 mm 1 mps 665 mmHg 89%
    05:00 +18°C° 0 mm 1 mps 666 mmHg 84%
    06:00 +19°C° 0 mm 1 mps 666 mmHg 78%
    07:00 +19°C° 0 mm 1 mps 667 mmHg 73%
    08:00 +22°C° 0 mm 1 mps 668 mmHg 60%
    09:00 +26°C° 0 mm 2 mps 668 mmHg 47%
    10:00 +29°C° 0 mm 2 mps 669 mmHg 35%
    11:00 +30°C° 0 mm 2 mps 669 mmHg 32%
    12:00 +32°C° 0 mm 2 mps 668 mmHg 29%
    13:00 +34°C° 0 mm 2 mps 668 mmHg 27%
    14:00 +34°C° 0 mm 2 mps 667 mmHg 27%
    15:00 +32°C° 0 mm 2 mps 667 mmHg 27%
    16:00 +32°C° 0 mm 2 mps 666 mmHg 28%
    17:00 +30°C° 0 mm 1 mps 666 mmHg 33%
    18:00 +27°C° 0 mm 1 mps 666 mmHg 38%
    19:00 +25°C° 0 mm 1 mps 666 mmHg 44%
    20:00 +24°C° 0 mm 1 mps 666 mmHg 46%
    21:00 +21°C° 0 mm 0 mps 666 mmHg 48%
    22:00 +20°C° 0 mm 0 mps 666 mmHg 50%
    23:00 +21°C° 0 mm 1 mps 666 mmHg 57%

    Day after tomorrow, 6 June, Saturday

    Time Temperature Precipitation Wind Pressure Humidity
    00:00 +20°C° 0 mm 1 mps 666 mmHg 64%
    01:00 +20°C° 0 mm 1 mps 666 mmHg 71%
    02:00 +19°C° 0 mm 1 mps 665 mmHg 75%
    03:00 +19°C° 0 mm 1 mps 665 mmHg 79%
    04:00 +18°C° 0 mm 1 mps 665 mmHg 83%
    05:00 +18°C° 0 mm 1 mps 666 mmHg 78%
    06:00 +19°C° 0 mm 1 mps 666 mmHg 74%
    07:00 +19°C° 0 mm 1 mps 667 mmHg 69%
    08:00 +21°C° 0 mm 2 mps 668 mmHg 57%
    09:00 +25°C° 0 mm 2 mps 668 mmHg 46%
    10:00 +28°C° 0 mm 2 mps 669 mmHg 34%
    11:00 +30°C° 0 mm 2 mps 668 mmHg 31%
    12:00 +32°C° 0 mm 2 mps 668 mmHg 28%
    13:00 +34°C° 0 mm 2 mps 668 mmHg 25%
    14:00 +34°C° 0 mm 2 mps 667 mmHg 25%
    15:00 +34°C° 0 mm 2 mps 667 mmHg 26%
    16:00 +32°C° 0 mm 1 mps 666 mmHg 26%
    17:00 +30°C° 0 mm 1 mps 666 mmHg 31%
    18:00 +27°C° 0 mm 1 mps 666 mmHg 35%
    19:00 +25°C° 0 mm 1 mps 666 mmHg 40%
    20:00 +24°C° 0 mm 1 mps 666 mmHg 42%
    21:00 +23°C° 0 mm 1 mps 666 mmHg 45%
    22:00 +23°C° 0 mm 1 mps 666 mmHg 47%
    23:00 +22°C° 0 mm 1 mps 666 mmHg 56%

    7 June, Sunday

    Time Temperature Precipitation Wind Pressure Humidity
    00:00 +20°C° 0 mm 1 mps 666 mmHg 66%
    01:00 +19°C° 0 mm 1 mps 665 mmHg 75%
    02:00 +19°C° 0 mm 1 mps 665 mmHg 79%
    03:00 +18°C° 0 mm 1 mps 665 mmHg 82%
    04:00 +18°C° 0 mm 1 mps 665 mmHg 85%
    05:00 +18°C° 0 mm 1 mps 665 mmHg 78%
    06:00 +18°C° 0 mm 1 mps 666 mmHg 72%
    07:00 +18°C° 0 mm 1 mps 666 mmHg 65%
    08:00 +21°C° 0 mm 2 mps 667 mmHg 54%
    09:00 +25°C° 0 mm 2 mps 668 mmHg 42%
    10:00 +28°C° 0 mm 3 mps 669 mmHg 31%
    11:00 +29°C° 0 mm 3 mps 668 mmHg 28%
    12:00 +31°C° 0 mm 2 mps 668 mmHg 25%
    13:00 +32°C° 0 mm 2 mps 668 mmHg 22%
    14:00 +32°C° 0 mm 2 mps 667 mmHg 23%
    15:00 +32°C° 0 mm 2 mps 667 mmHg 23%
    16:00 +31°C° 0 mm 1 mps 666 mmHg 23%
    17:00 +28°C° 0 mm 1 mps 666 mmHg 29%
    18:00 +26°C° 0 mm 1 mps 666 mmHg 35%
    19:00 +21°C° 0 mm 0 mps 666 mmHg 41%
    20:00 +20°C° 0 mm 0 mps 666 mmHg 42%
    21:00 +19°C° 0 mm 0 mps 666 mmHg 44%
    22:00 +19°C° 0 mm 0 mps 666 mmHg 45%
    23:00 +20°C° 0 mm 1 mps 666 mmHg 49%

    8 June, Monday

    Time Temperature Precipitation Wind Pressure Humidity
    00:00 +19°C° 0 mm 1 mps 666 mmHg 52%
    01:00 +19°C° 0 mm 1 mps 665 mmHg 55%
    02:00 +18°C° 0 mm 1 mps 665 mmHg 58%
    03:00 +18°C° 0 mm 1 mps 665 mmHg 60%
    04:00 +16°C° 0 mm 1 mps 665 mmHg 63%
    05:00 +16°C° 0 mm 1 mps 665 mmHg 59%
    06:00 +16°C° 0 mm 2 mps 666 mmHg 56%
    07:00 +16°C° 0 mm 2 mps 666 mmHg 52%
    08:00 +19°C° 0 mm 2 mps 667 mmHg 45%
    09:00 +24°C° 0 mm 2 mps 667 mmHg 37%
    10:00 +27°C° 0 mm 3 mps 668 mmHg 30%
    11:00 +29°C° 0 mm 3 mps 667 mmHg 27%
    12:00 +30°C° 0 mm 2 mps 667 mmHg 24%
    13:00 +32°C° 0 mm 2 mps 667 mmHg 20%
    14:00 +32°C° 0 mm 2 mps 666 mmHg 20%
    15:00 +31°C° 0 mm 2 mps 666 mmHg 21%
    16:00 +31°C° 0 mm 2 mps 665 mmHg 21%
    17:00 +28°C° 0 mm 1 mps 665 mmHg 25%
    18:00 +25°C° 0 mm 1 mps 665 mmHg 30%
    19:00 +22°C° 0 mm 1 mps 665 mmHg 35%
    20:00 +22°C° 0 mm 1 mps 665 mmHg 36%
    21:00 +21°C° 0 mm 1 mps 665 mmHg 37%
    22:00 +20°C° 0 mm 1 mps 665 mmHg 38%
    23:00 +19°C° 0 mm 1 mps 665 mmHg 43%

    9 June, Tuesday

    Time Temperature Precipitation Wind Pressure Humidity
    00:00 +19°C° 0 mm 1 mps 665 mmHg 49%
    01:00 +18°C° 0 mm 1 mps 664 mmHg 55%
    02:00 +16°C° 0 mm 1 mps 664 mmHg 58%
    03:00 +16°C° 0 mm 1 mps 664 mmHg 61%
    04:00 +15°C° 0 mm 1 mps 664 mmHg 64%
    05:00 +15°C° 0 mm 1 mps 665 mmHg 60%
    06:00 +15°C° 0 mm 1 mps 665 mmHg 55%
    07:00 +16°C° 0 mm 2 mps 665 mmHg 51%
    08:00 +19°C° 0 mm 2 mps 666 mmHg 44%
    09:00 +23°C° 0 mm 2 mps 667 mmHg 37%
    10:00 +27°C° 0 mm 2 mps 668 mmHg 29%
    11:00 +29°C° 0 mm 2 mps 668 mmHg 26%
    12:00 +30°C° 0 mm 2 mps 667 mmHg 23%
    13:00 +32°C° 0 mm 2 mps 667 mmHg 20%
    14:00 +32°C° 0 mm 2 mps 666 mmHg 20%
    15:00 +31°C° 0 mm 2 mps 666 mmHg 20%
    16:00 +31°C° 0 mm 2 mps 665 mmHg 21%
    17:00 +28°C° 0 mm 1 mps 665 mmHg 25%
    18:00 +25°C° 0 mm 1 mps 665 mmHg 30%
    19:00 +22°C° 0 mm 1 mps 664 mmHg 34%
    20:00 +21°C° 0 mm 1 mps 665 mmHg 36%
    21:00 +20°C° 0 mm 1 mps 665 mmHg 38%
    22:00 +20°C° 0 mm 1 mps 665 mmHg 40%
    23:00 +19°C° 0 mm 1 mps 665 mmHg 49%
    Show more